Flag for U.S.A. Weather past 2 weeks in Sarasota, Florida, U.S.A.

Now
88 °F

Scattered clouds.


Feels Like: 89 °F
Forecast: 72 / 88 °F
Wind: 12 mph from East

Location: Sarasota-Bradenton International Airport

Current Time: May 28, 2015 at 7:03:44 PM

Latest Report: May 28, 2015 at 5:53 PM


Visibility: 10 mi

Pressure: 30.01 "Hg

Humidity: 43%

Dew point: 63 °F

Location of SarasotaLocation

Historic Weather in Sarasota — Graph

°F

Sarasota temperature yesterday

Maximum temperature yesterday: 90 °F (at 4:53 PM)
Minimum temperature yesterday: 73 °F (at 5:53 AM)
Average temperature yesterday: 80 °F

Past Weeks' High & Low Weather Summary

 TemperatureHumidityPressure
High93 °F (May 23, 3:53 PM)97% (May 17, 4:53 AM)30.20 "Hg (May 17, 4:53 AM)
Low69 °F (May 28, 5:53 AM)39% (May 15, 3:53 PM)29.94 "Hg (May 20, 5:53 PM)
Average80 °F76%30.10 "Hg
* Reported May 13 4:53 PM — May 28 4:53 PM, Sarasota, Weather by CustomWeather, © 2015

Note: Actual official high and low records may vary slightly from our data, if they occured in-between our weather recording intervals... More about our weather records

Advertising

Sarasota weather history for previous 24 hours

 ConditionsComfort  
Time TempWeatherWind HumidityBarometerVisibility
4:53 PM
Thu, May 28
87 °FPassing clouds.8 mph45%30.03 "Hg10 mi
3:53 PM87 °FScattered clouds.10 mph48%30.04 "Hg10 mi
2:53 PM85 °FBroken clouds.12 mph48%30.06 "Hg10 mi
1:53 PM86 °FPartly sunny.10 mph48%30.08 "Hg10 mi
12:53 PM85 °FPartly sunny.9 mph50%30.10 "Hg10 mi
11:53 AM84 °FScattered clouds.9 mph53%30.11 "Hg10 mi
10:53 AM82 °FScattered clouds.10 mph56%30.12 "Hg10 mi
9:53 AM79 °FSunny.13 mph65%30.12 "Hg10 mi
8:53 AM77 °FSunny.9 mph66%30.11 "Hg10 mi
7:53 AM72 °FSunny.8 mph78%30.10 "Hg10 mi
6:53 AM69 °FClear.7 mph90%30.08 "Hg10 mi
5:53 AM69 °FClear.6 mph90%30.07 "Hg10 mi
4:53 AM71 °FClear.7 mph84%30.06 "Hg10 mi
3:53 AM71 °FClear.7 mph87%30.07 "Hg10 mi
2:53 AM71 °FClear.7 mph87%30.08 "Hg10 mi
1:53 AM72 °FClear.8 mph81%30.10 "Hg10 mi
12:53 AM72 °FClear.8 mph78%30.11 "Hg10 mi
11:53 PM
Wed, May 27
74 °FClear.8 mph71%30.11 "Hg10 mi
10:53 PM77 °FClear.8 mph60%30.11 "Hg10 mi
9:53 PM79 °FClear.10 mph56%30.09 "Hg10 mi
8:53 PM82 °FSunny.10 mph51%30.08 "Hg10 mi
7:53 PM84 °FSunny.13 mph43%30.07 "Hg10 mi
Weather by CustomWeather, © 2015

See weather overviewHow to use our weather pages